Location: Arcadia
(34.1397°N, 118.0353°W)
Time: 12:47:14
(UTC+00:00)

Daily predictions for brighter satellites

Satellite Brightness Start Highest point End
(mag) Time Altitude Azimuth Time Altitude Azimuth Time Altitude Azimuth
Tiangong -0.8 12:01:58 26° NNW 12:03:02 35° NNE 12:05:56 10° E
Cosmos 1500 2.6 12:00:35 10° N 12:03:54 78° W 12:05:43 24° S
CZ-3 Stage 3 4.0 12:01:43 10° S 12:04:44 17° SE 12:10:34 10° E
Thor Agena Rocket 3.5 12:00:16 10° NNE 12:05:25 84° ESE 12:10:37 10° SSW
Cosmos 1544 Rocket 4.2 12:05:54 33° W 12:05:55 33° W 12:09:52 10° NNW
OAO 3 Rocket 4.5 12:06:48 21° SSW 12:06:48 21° SSW 12:09:49 10° SSE
Cosmos 1934 Rocket 4.2 12:00:51 10° N 12:07:09 76° E 12:13:29 10° S
SL-08 R/B 4.5 12:01:20 10° NNW 12:07:41 66° W 12:13:55 10° S
Cosmos 2237 4.3 12:05:34 10° NNW 12:11:04 53° WSW 12:16:33 10° S
IRS-1D 3.6 12:06:17 10° N 12:11:30 59° WNW 12:15:43 16° SSW
Cosmos 1833 4.2 12:10:47 20° SW 12:14:43 65° WNW 12:20:25 10° NNE
Cosmos 1339 Rocket 4.4 12:12:19 10° SSW 12:18:17 59° W 12:24:17 10° N
Cosmos 1190 Rocket 4.2 12:16:39 22° SW 12:19:45 48° WNW 12:24:46 10° N
Cosmos 540 Rocket 4.0 12:17:27 10° N 12:22:31 61° ENE 12:27:33 10° SSE
Lacrosse 5 rocket 3.1 12:22:51 10° S 12:25:39 22° ESE 12:28:25 10° ENE
Cosmos 1763 Rocket 3.4 12:21:15 10° NNW 12:26:24 87° WSW 12:31:35 10° SSE
SL-16 R/B 4.2 12:28:59 13° WNW 12:28:59 13° WNW 12:30:18 10° WNW
Okean 1-7 Rocket 3.6 12:26:12 10° NNW 12:30:36 59° W 12:34:56 10° S
GP-B 4.1 12:28:28 10° SSE 12:32:42 49° E 12:36:56 10° N
Cosmos 1606 Rocket 3.4 12:30:17 10° SSW 12:34:33 68° W 12:38:53 10° N
Cosmos 676 Rocket 4.0 12:30:04 10° SSW 12:35:08 61° WNW 12:40:16 10° N
Cosmos 1825 Rocket 3.9 12:31:30 10° N 12:35:56 68° E 12:40:16 10° SSE
Cosmos 1812 2.4 12:32:45 10° SSW 12:36:13 68° W 12:39:43 10° N
Cosmos 2360 Rocket 2.2 12:30:46 10° NNW 12:36:24 87° WSW 12:42:00 10° SSE
NOSS 3-2 (A) 3.1 12:35:01 13° SW 12:39:29 60° NW 12:45:08 10° NNE
COSMOS 2455 4.0 12:37:47 15° W 12:41:20 25° NW 12:46:12 10° N
CBERS-1 4.0 12:36:25 10° NNE 12:41:31 86° WNW 12:46:36 10° SSW
Cosmos 2322 Rocket 2.3 12:39:35 10° NNW 12:45:06 55° WSW 12:50:35 10° S
Cosmos 2151 3.5 12:42:56 10° N 12:47:02 61° E 12:51:06 10° SSE
Cosmos 1605 Rocket 4.0 12:41:12 10° N 12:47:29 88° W 12:53:39 10° S
ATLAS 5 CENTAUR R/B 0.9 12:45:56 10° SSW 12:49:09 73° ESE 12:52:25 10° NE
JB-3 4.2 12:45:32 10° S 12:49:16 68° W 12:53:08 10° NNW
CZ-2C R/B 4.1 12:47:03 10° NNW 12:49:38 14° WNW 12:51:54 11° W
ISS -2.5 12:47:58 11° WNW 12:50:29 23° SW 12:53:14 10° S
Cosmos 2333 Rocket 2.2 12:46:41 10° NNW 12:52:20 65° WSW 12:57:56 10° S
CENTAUR R/B 3.4 12:52:15 11° WSW 12:56:50 29° NW 13:02:28 10° NNE
Cosmos 2219 Rocket 2.6 12:51:53 10° NNW 12:57:31 71° ENE 13:03:04 10° SSE
ARGOS 3.2 12:54:13 10° N 12:59:30 64° WNW 13:04:47 10° SSW
H-2A R/B 2.1 13:00:22 10° NNE 13:03:19 80° ESE 13:06:14 10° S
SL-16 R/B 3.3 13:00:26 10° NW 13:04:32 21° W 13:08:39 10° SSW
ASTRO E2 4.3 13:03:00 10° SW 13:04:40 13° SSW 13:06:20 10° S
SJ 16-02 2.1 13:01:18 10° S 13:05:33 56° ESE 13:09:49 10° NNE
USA 215 3.3 13:00:56 10° SE 13:07:27 76° SW 13:14:01 10° NW
H-2A R/B 3.4 13:04:22 10° NNW 13:08:24 22° WNW 13:12:27 10° WSW
Cosmos 1378 3.6 13:05:37 10° S 13:08:38 53° E 13:11:41 10° NNE
Cosmos 968 Rocket 3.8 13:04:27 10° S 13:09:39 74° ESE 13:14:49 10° NNE
Cosmos 1867 4.2 13:05:48 10° SW 13:10:51 39° NW 13:15:59 10° NNE
CZ-3 R/B 2.8 13:08:47 10° WSW 13:25:49 57° S 13:31:18 10° E
